Time,TemperatureF,DewpointF,PressureIn,WindDirection,WindDirectionDegrees,WindSpeedMPH,WindSpeedGustMPH,Humidity,HourlyPrecipIn,Conditions,Clouds,dailyrainin,SoftwareType,DateUTC
2013-04-19 00:03:00,39.0,34.0,29.36,SSE,167,8.0,22.0,83,0.00,,,0.74,,2013-04-19 05:03:00,
2013-04-19 00:11:00,39.0,34.0,29.36,SSE,167,8.0,22.0,83,0.00,,,0.74,,2013-04-19 05:11:00,
2013-04-19 00:22:00,39.0,34.0,29.35,South,184,9.0,31.0,83,0.00,,,0.67,,2013-04-19 05:22:00,
2013-04-19 00:32:00,38.0,34.0,29.35,WSW,246,8.0,20.0,84,0.00,,,0.67,,2013-04-19 05:32:00,
2013-04-19 00:42:00,38.0,34.0,29.35,WSW,246,8.0,20.0,84,0.00,,,0.67,,2013-04-19 05:42:00,
2013-04-19 00:52:00,38.0,34.0,29.34,South,187,9.0,18.0,84,0.00,,,0.67,,2013-04-19 05:52:00,
2013-04-19 01:01:00,37.0,33.0,29.33,SW,219,9.0,22.0,84,0.00,,,0.67,,2013-04-19 06:01:00,
2013-04-19 01:11:00,37.0,32.0,29.33,SSW,194,11.0,20.0,83,0.00,,,0.44,,2013-04-19 06:11:00,
2013-04-19 01:22:00,37.0,32.0,29.33,SSW,194,11.0,20.0,83,0.00,,,0.44,,2013-04-19 06:22:00,
2013-04-19 01:32:00,37.0,32.0,29.32,West,267,8.0,21.0,83,0.00,,,0.44,,2013-04-19 06:32:00,
2013-04-19 01:42:00,37.0,32.0,29.32,West,267,8.0,21.0,83,0.00,,,0.44,,2013-04-19 06:42:00,
2013-04-19 01:53:00,37.0,32.0,29.32,SSW,202,8.0,18.0,83,0.00,,,0.44,,2013-04-19 06:53:00,
2013-04-19 02:02:00,36.0,31.0,29.33,SW,225,6.0,25.0,83,0.00,,,0.44,,2013-04-19 07:02:00,
2013-04-19 02:12:00,36.0,32.0,29.33,South,188,8.0,16.0,84,0.00,,,0.30,,2013-04-19 07:12:00,
2013-04-19 02:21:00,36.0,32.0,29.33,South,188,8.0,16.0,84,0.00,,,0.30,,2013-04-19 07:21:00,
2013-04-19 02:32:00,36.0,31.0,29.33,SW,214,8.0,19.0,83,0.00,,,0.30,,2013-04-19 07:32:00,
2013-04-19 02:42:00,36.0,31.0,29.33,SW,214,8.0,19.0,83,0.00,,,0.30,,2013-04-19 07:42:00,
2013-04-19 02:52:00,36.0,31.0,29.32,WSW,252,7.0,13.0,83,0.00,,,0.30,,2013-04-19 07:52:00,
2013-04-19 03:02:00,36.0,31.0,29.32,SSW,202,5.0,18.0,82,0.00,,,0.30,,2013-04-19 08:02:00,
2013-04-19 03:12:00,36.0,31.0,29.31,South,173,6.0,16.0,82,0.00,,,0.21,,2013-04-19 08:12:00,
2013-04-19 03:21:00,36.0,31.0,29.31,South,173,6.0,16.0,82,0.00,,,0.21,,2013-04-19 08:21:00,
2013-04-19 03:32:00,35.0,30.0,29.31,South,178,7.0,19.0,83,0.00,,,0.21,,2013-04-19 08:32:00,
2013-04-19 03:42:00,35.0,30.0,29.32,South,184,5.0,13.0,83,0.00,,,0.21,,2013-04-19 08:42:00,
2013-04-19 03:52:00,35.0,30.0,29.32,South,184,5.0,13.0,83,0.00,,,0.21,,2013-04-19 08:52:00,
2013-04-19 04:01:00,35.0,30.0,29.32,WSW,254,7.0,18.0,83,0.00,,,0.21,,2013-04-19 09:01:00,
2013-04-19 04:11:00,35.0,30.0,29.32,WSW,254,7.0,18.0,83,0.00,,,0.21,,2013-04-19 09:11:00,
2013-04-19 04:21:00,35.0,30.0,29.31,WSW,255,8.0,20.0,83,0.00,,,0.19,,2013-04-19 09:21:00,
2013-04-19 04:32:00,35.0,30.0,29.31,WSW,258,6.0,14.0,83,0.00,,,0.19,,2013-04-19 09:32:00,
2013-04-19 04:42:00,35.0,30.0,29.31,WSW,258,6.0,14.0,83,0.00,,,0.19,,2013-04-19 09:42:00,
2013-04-19 04:52:00,34.0,29.0,29.31,SW,218,9.0,13.0,83,0.00,,,0.19,,2013-04-19 09:52:00,
2013-04-19 05:02:00,34.0,29.0,29.31,SW,221,7.0,18.0,83,0.00,,,0.19,,2013-04-19 10:02:00,
2013-04-19 05:13:00,34.0,29.0,29.31,SW,215,10.0,18.0,83,0.00,,,0.17,,2013-04-19 10:13:00,
2013-04-19 05:23:00,34.0,29.0,29.31,SW,215,10.0,18.0,83,0.00,,,0.17,,2013-04-19 10:23:00,
2013-04-19 05:33:00,34.0,29.0,29.31,WSW,252,8.0,16.0,83,0.00,,,0.17,,2013-04-19 10:33:00,
2013-04-19 05:42:00,34.0,29.0,29.31,SW,232,9.0,18.0,83,0.00,,,0.17,,2013-04-19 10:42:00,
2013-04-19 05:52:00,34.0,29.0,29.31,SW,232,9.0,18.0,83,0.00,,,0.17,,2013-04-19 10:52:00,
2013-04-19 06:02:00,34.0,29.0,29.31,SSW,201,6.0,16.0,83,0.00,,,0.17,,2013-04-19 11:02:00,
2013-04-19 06:11:00,34.0,29.0,29.31,SSW,201,6.0,16.0,83,0.00,,,0.17,,2013-04-19 11:11:00,
2013-04-19 06:22:00,34.0,29.0,29.31,SW,232,7.0,15.0,83,0.00,,,0.17,,2013-04-19 11:22:00,
2013-04-19 06:32:00,34.0,29.0,29.31,SSW,198,9.0,22.0,83,0.00,,,0.17,,2013-04-19 11:32:00,
2013-04-19 06:42:00,34.0,29.0,29.31,SSW,198,9.0,22.0,83,0.00,,,0.17,,2013-04-19 11:42:00,
2013-04-19 06:52:00,34.0,29.0,29.32,South,169,9.0,18.0,83,0.00,,,0.17,,2013-04-19 11:52:00,
2013-04-19 07:02:00,34.0,29.0,29.32,SW,225,7.0,16.0,82,0.00,,,0.17,,2013-04-19 12:02:00,
2013-04-19 07:12:00,34.0,29.0,29.32,SW,229,8.0,16.0,81,0.00,,,0.15,,2013-04-19 12:12:00,
2013-04-19 07:22:00,34.0,29.0,29.32,SW,229,8.0,16.0,81,0.00,,,0.15,,2013-04-19 12:22:00,
2013-04-19 07:32:00,34.0,29.0,29.32,WSW,254,9.0,18.0,81,0.00,,,0.15,,2013-04-19 12:32:00,
2013-04-19 07:42:00,34.0,29.0,29.32,WSW,254,9.0,18.0,81,0.00,,,0.15,,2013-04-19 12:42:00,
2013-04-19 07:53:00,34.0,28.0,29.32,SSE,167,8.0,15.0,80,0.00,,,0.15,,2013-04-19 12:53:00,
2013-04-19 08:01:00,35.0,29.0,29.32,WSW,238,10.0,18.0,79,0.00,,,0.15,,2013-04-19 13:01:00,
2013-04-19 08:11:00,35.0,29.0,29.32,West,269,9.0,16.0,79,0.00,,,0.06,,2013-04-19 13:11:00,
2013-04-19 08:21:00,35.0,29.0,29.32,West,269,9.0,16.0,79,0.00,,,0.06,,2013-04-19 13:21:00,
2013-04-19 08:32:00,35.0,30.0,29.33,West,269,8.0,21.0,81,0.00,,,0.06,,2013-04-19 13:32:00,
2013-04-19 08:42:00,35.0,30.0,29.33,West,269,8.0,21.0,81,0.00,,,0.06,,2013-04-19 13:42:00,
2013-04-19 08:52:00,34.0,29.0,29.33,South,190,7.0,21.0,82,0.00,,,0.06,,2013-04-19 13:52:00,
2013-04-19 09:01:00,35.0,30.0,29.33,WSW,246,7.0,19.0,83,0.00,,,0.06,,2013-04-19 14:01:00,
2013-04-19 09:11:00,35.0,30.0,29.34,SSW,209,7.0,18.0,82,0.00,,,0.02,,2013-04-19 14:11:00,
2013-04-19 09:22:00,35.0,30.0,29.34,SSW,209,7.0,18.0,82,0.00,,,0.02,,2013-04-19 14:22:00,
2013-04-19 09:32:00,35.0,30.0,29.34,SW,230,6.0,23.0,82,0.00,,,0.02,,2013-04-19 14:32:00,
2013-04-19 09:42:00,35.0,30.0,29.34,SW,230,6.0,23.0,82,0.00,,,0.02,,2013-04-19 14:42:00,
2013-04-19 09:52:00,34.0,29.0,29.35,SW,230,6.0,16.0,83,0.00,,,0.02,,2013-04-19 14:52:00,
2013-04-19 10:01:00,35.0,30.0,29.36,SW,219,8.0,19.0,82,0.00,,,0.02,,2013-04-19 15:01:00,
2013-04-19 10:12:00,35.0,29.0,29.36,West,272,8.0,16.0,80,0.00,,,0.02,,2013-04-19 15:12:00,
2013-04-19 10:21:00,35.0,29.0,29.36,West,272,8.0,16.0,80,0.00,,,0.02,,2013-04-19 15:21:00,
2013-04-19 10:33:00,35.0,29.0,29.38,SSW,192,7.0,20.0,78,0.00,,,0.02,,2013-04-19 15:33:00,
2013-04-19 10:43:00,35.0,29.0,29.38,SSW,192,7.0,20.0,78,0.00,,,0.02,,2013-04-19 15:43:00,
2013-04-19 10:52:00,35.0,29.0,29.39,WSW,252,10.0,16.0,78,0.00,,,0.02,,2013-04-19 15:52:00,
2013-04-19 11:03:00,35.0,28.0,29.39,West,275,12.0,20.0,76,0.00,,,0.02,,2013-04-19 16:03:00,
2013-04-19 11:12:00,35.0,28.0,29.40,SW,219,5.0,19.0,75,0.00,,,0.02,,2013-04-19 16:12:00,
2013-04-19 11:23:00,35.0,28.0,29.40,SW,219,5.0,19.0,75,0.00,,,0.02,,2013-04-19 16:23:00,
2013-04-19 11:32:00,35.0,27.0,29.41,West,261,7.0,18.0,73,0.00,,,0.02,,2013-04-19 16:32:00,
2013-04-19 11:42:00,36.0,28.0,29.41,WNW,296,9.0,16.0,72,0.00,,,0.02,,2013-04-19 16:42:00,
2013-04-19 11:53:00,36.0,28.0,29.41,WNW,296,9.0,16.0,72,0.00,,,0.02,,2013-04-19 16:53:00,
2013-04-19 12:02:00,36.0,29.0,29.42,WSW,250,8.0,16.0,74,0.00,,,0.02,,2013-04-19 17:02:00,
2013-04-19 12:12:00,36.0,29.0,29.42,WSW,250,8.0,16.0,74,0.00,,,0.02,,2013-04-19 17:12:00,
2013-04-19 12:21:00,36.0,29.0,29.42,West,279,8.0,14.0,75,0.00,,,0.02,,2013-04-19 17:21:00,
2013-04-19 12:33:00,36.0,28.0,29.43,West,268,8.0,21.0,72,0.01,,,0.03,,2013-04-19 17:33:00,
2013-04-19 12:42:00,36.0,28.0,29.43,West,268,8.0,21.0,72,0.01,,,0.03,,2013-04-19 17:42:00,
2013-04-19 12:52:00,35.0,30.0,29.44,WSW,249,3.0,19.0,81,0.01,,,0.03,,2013-04-19 17:52:00,
2013-04-19 13:01:00,35.0,29.0,29.45,West,263,7.0,26.0,78,0.01,,,0.03,,2013-04-19 18:01:00,
2013-04-19 13:13:00,35.0,29.0,29.45,West,263,7.0,26.0,78,0.01,,,0.03,,2013-04-19 18:13:00,
2013-04-19 13:23:00,36.0,28.0,29.44,NW,306,7.0,20.0,72,0.01,,,0.03,,2013-04-19 18:23:00,
2013-04-19 13:33:00,35.0,27.0,29.47,NW,308,7.0,23.0,73,0.00,,,0.03,,2013-04-19 18:33:00,
2013-04-19 13:42:00,35.0,27.0,29.47,NW,308,7.0,23.0,73,0.00,,,0.03,,2013-04-19 18:42:00,
2013-04-19 13:52:00,35.0,29.0,29.46,West,267,2.0,18.0,79,0.00,,,0.03,,2013-04-19 18:52:00,
2013-04-19 14:01:00,37.0,29.0,29.47,SW,232,11.0,20.0,72,0.00,,,0.03,,2013-04-19 19:01:00,
2013-04-19 14:11:00,37.0,29.0,29.47,SW,232,11.0,20.0,72,0.00,,,0.03,,2013-04-19 19:11:00,
2013-04-19 14:21:00,34.0,28.0,29.48,West,273,9.0,20.0,79,0.00,,,0.03,,2013-04-19 19:21:00,
2013-04-19 14:32:00,37.0,28.0,29.49,WSW,238,9.0,19.0,71,0.00,,,0.03,,2013-04-19 19:32:00,
2013-04-19 14:42:00,37.0,28.0,29.49,WSW,238,9.0,19.0,71,0.00,,,0.03,,2013-04-19 19:42:00,
2013-04-19 14:52:00,37.0,26.0,29.50,WNW,295,8.0,18.0,65,0.00,,,0.03,,2013-04-19 19:52:00,
2013-04-19 15:02:00,36.0,27.0,29.51,West,280,9.0,28.0,69,0.00,,,0.03,,2013-04-19 20:02:00,
2013-04-19 15:11:00,36.0,27.0,29.51,West,280,9.0,28.0,69,0.00,,,0.03,,2013-04-19 20:11:00,
2013-04-19 15:22:00,37.0,26.0,29.52,West,273,9.0,22.0,64,0.00,,,0.03,,2013-04-19 20:22:00,
2013-04-19 15:32:00,36.0,28.0,29.54,WNW,291,9.0,18.0,71,0.00,,,0.03,,2013-04-19 20:32:00,
2013-04-19 15:42:00,36.0,27.0,29.54,West,264,7.0,18.0,70,0.00,,,0.03,,2013-04-19 20:42:00,
2013-04-19 15:52:00,36.0,27.0,29.54,West,264,7.0,18.0,70,0.00,,,0.03,,2013-04-19 20:52:00,
2013-04-19 16:01:00,37.0,27.0,29.55,WNW,286,6.0,20.0,66,0.00,,,0.03,,2013-04-19 21:01:00,
2013-04-19 16:11:00,36.0,28.0,29.56,West,269,8.0,16.0,71,0.00,,,0.03,,2013-04-19 21:11:00,
2013-04-19 16:21:00,36.0,28.0,29.56,West,269,8.0,16.0,71,0.00,,,0.03,,2013-04-19 21:21:00,
2013-04-19 16:32:00,36.0,25.0,29.57,WNW,294,9.0,24.0,64,0.00,,,0.03,,2013-04-19 21:32:00,
2013-04-19 16:42:00,36.0,25.0,29.57,WNW,294,9.0,24.0,64,0.00,,,0.03,,2013-04-19 21:42:00,
2013-04-19 16:53:00,36.0,27.0,29.58,NW,309,8.0,18.0,69,0.00,,,0.03,,2013-04-19 21:53:00,
2013-04-19 17:02:00,36.0,27.0,29.59,West,261,6.0,14.0,70,0.00,,,0.03,,2013-04-19 22:02:00,
2013-04-19 17:12:00,35.0,26.0,29.60,WNW,302,8.0,16.0,69,0.00,,,0.03,,2013-04-19 22:12:00,
2013-04-19 17:22:00,35.0,26.0,29.60,WNW,302,8.0,16.0,69,0.00,,,0.03,,2013-04-19 22:22:00,
2013-04-19 17:33:00,36.0,26.0,29.61,West,265,8.0,18.0,67,0.00,,,0.03,,2013-04-19 22:33:00,
2013-04-19 17:42:00,36.0,26.0,29.61,West,265,8.0,18.0,67,0.00,,,0.03,,2013-04-19 22:42:00,
2013-04-19 17:52:00,36.0,26.0,29.62,WSW,248,4.0,10.0,68,0.00,,,0.03,,2013-04-19 22:52:00,
2013-04-19 18:02:00,36.0,28.0,29.64,West,272,6.0,18.0,72,0.00,,,0.03,,2013-04-19 23:02:00,
2013-04-19 18:11:00,36.0,28.0,29.64,West,272,6.0,18.0,72,0.00,,,0.03,,2013-04-19 23:11:00,
2013-04-19 18:22:00,35.0,25.0,29.64,West,265,5.0,18.0,66,0.00,,,0.03,,2013-04-19 23:22:00,
2013-04-19 18:32:00,33.0,26.0,29.65,SW,231,9.0,18.0,76,0.00,,,0.03,,2013-04-19 23:32:00,
2013-04-19 18:42:00,33.0,26.0,29.65,SW,231,9.0,18.0,76,0.00,,,0.03,,2013-04-19 23:42:00,
2013-04-19 18:52:00,33.0,27.0,29.66,SW,220,6.0,12.0,79,0.00,,,0.03,,2013-04-19 23:52:00,
2013-04-19 19:02:00,33.0,27.0,29.67,North,5,6.0,21.0,77,0.00,,,0.03,,2013-04-20 00:02:00,
2013-04-19 19:12:00,33.0,27.0,29.67,North,5,6.0,21.0,77,0.00,,,0.03,,2013-04-20 00:12:00,
2013-04-19 19:21:00,33.0,27.0,29.67,West,272,5.0,22.0,78,0.00,,,0.02,,2013-04-20 00:21:00,
2013-04-19 19:32:00,34.0,27.0,29.69,WSW,252,7.0,12.0,76,0.00,,,0.02,,2013-04-20 00:32:00,
2013-04-19 19:41:00,34.0,27.0,29.69,WSW,252,7.0,12.0,76,0.00,,,0.02,,2013-04-20 00:41:00,
2013-04-19 19:52:00,34.0,28.0,29.70,WNW,283,3.0,11.0,77,0.00,,,0.02,,2013-04-20 00:52:00,
2013-04-19 20:01:00,34.0,27.0,29.71,NW,306,9.0,19.0,75,0.00,,,0.02,,2013-04-20 01:01:00,
2013-04-19 20:11:00,34.0,27.0,29.71,NW,306,9.0,19.0,75,0.00,,,0.02,,2013-04-20 01:11:00,
2013-04-19 20:21:00,34.0,26.0,29.72,WNW,296,9.0,19.0,71,0.00,,,0.01,,2013-04-20 01:21:00,
2013-04-19 20:32:00,34.0,25.0,29.73,WNW,300,12.0,18.0,69,0.00,,,0.01,,2013-04-20 01:32:00,
2013-04-19 20:42:00,34.0,25.0,29.73,WNW,300,12.0,18.0,69,0.00,,,0.01,,2013-04-20 01:42:00,
2013-04-19 20:52:00,33.0,24.0,29.75,West,261,6.0,15.0,69,0.00,,,0.01,,2013-04-20 01:52:00,
2013-04-19 21:01:00,33.0,25.0,29.76,West,279,7.0,18.0,71,0.00,,,0.01,,2013-04-20 02:01:00,
2013-04-19 21:11:00,33.0,25.0,29.77,West,264,4.0,13.0,71,0.00,,,0.01,,2013-04-20 02:11:00,
2013-04-19 21:21:00,33.0,25.0,29.77,West,264,4.0,13.0,71,0.00,,,0.01,,2013-04-20 02:21:00,
2013-04-19 21:32:00,33.0,25.0,29.78,WSW,250,7.0,14.0,71,0.00,,,0.01,,2013-04-20 02:32:00,
2013-04-19 21:42:00,33.0,25.0,29.78,WSW,250,7.0,14.0,71,0.00,,,0.01,,2013-04-20 02:42:00,
2013-04-19 21:52:00,33.0,25.0,29.80,North,5,8.0,14.0,72,0.00,,,0.01,,2013-04-20 02:52:00,
2013-04-19 22:01:00,32.0,23.0,29.80,NW,318,5.0,13.0,68,0.00,,,0.01,,2013-04-20 03:01:00,
2013-04-19 22:11:00,32.0,22.0,29.81,NW,318,7.0,16.0,67,0.00,,,0.01,,2013-04-20 03:11:00,
2013-04-19 22:21:00,32.0,22.0,29.81,NW,318,7.0,16.0,67,0.00,,,0.01,,2013-04-20 03:21:00,
2013-04-19 22:33:00,32.0,22.0,29.82,NW,318,8.0,19.0,67,0.00,,,0.01,,2013-04-20 03:33:00,
2013-04-19 22:43:00,31.0,22.0,29.83,West,276,6.0,16.0,68,0.00,,,0.01,,2013-04-20 03:43:00,
2013-04-19 22:53:00,31.0,22.0,29.83,West,276,6.0,16.0,68,0.00,,,0.01,,2013-04-20 03:53:00,
2013-04-19 23:03:00,31.0,22.0,29.83,NW,307,5.0,13.0,69,0.00,,,0.01,,2013-04-20 04:03:00,
2013-04-19 23:12:00,31.0,22.0,29.83,NW,307,5.0,13.0,69,0.00,,,0.01,,2013-04-20 04:12:00,
2013-04-19 23:23:00,31.0,22.0,29.84,NW,319,7.0,11.0,69,0.00,,,0.01,,2013-04-20 04:23:00,
2013-04-19 23:32:00,31.0,22.0,29.85,NW,314,5.0,16.0,69,0.00,,,0.01,,2013-04-20 04:32:00,
2013-04-19 23:42:00,31.0,22.0,29.85,NW,314,5.0,16.0,69,0.00,,,0.01,,2013-04-20 04:42:00,
2013-04-19 23:52:00,30.0,21.0,29.85,NW,309,5.0,11.0,69,0.00,,,0.01,,2013-04-20 04:52:00,